sat.trackr.live / text

‹ back to catalog

STARLINK-35195

NORAD 65606 · 2025-207Q

PAYLOAD ACTIVE UNKNOWN

§ Identity

Operator
Country
US
Launch date
2025-09-13
Launch site
AFWTR
Launch vehicle
Mass (kg)
RCS (m²)

Purposes: comms

External: N2YO · Heavens-Above · Gunter

§ Orbital elements

Epoch: 2026-09-20T22:00:03.000096Z

Period
94.06 min
Inclination
97.2849°
Eccentricity
0.0001453
Mean motion
15.30946659 rev/d
Perigee alt
472.0 km
Apogee alt
474.0 km
Semi-major
6,851.1 km
B*
1.1736e-1
RAAN
326.4259°
Arg perigee
127.1030°
Mean anomaly
140.0054°
Rev number
574

§ Raw data

STARLINK-351951 65606U 25207Q   26263.91670139  .03966981  00000+0  11736+0 0  99922 65606  97.2849 326.4259 0001453 127.1030 140.0054 15.30946659  5740

JSON: /api/v1/satellites/65606 · /tle

For live sub-satellite position, see the globe view (requires WebGL).

§ Visibility from observer

Set your observer location to see the next 7 days of passes ≥ 10°. The values pass through the URL so the page stays shareable.

No JS? Fill the form by hand. The geolocation button needs JavaScript.